COSMOS 1691 DEB, 16270

Orbit data source: Space-Track

COSMOS 1691 DEB, 16270 is space debris in LEO originally from a launch on Wed, 09 Oct 1985 UTC launched from the Plesetsk Missile And Space Complex (PKMTR). Debris objects in space refer to the collection of defunct objects orbiting the Earth. Examples of debris include non-operational satellites, rocket bodies, and fragments generated from explosions, collisions, or faulty payload assembly.

Loading next visibility...
Identifier
16270, 1985-094P
Orbit
LEO
Country
Flag of CISCIS
Related business
Manufacturer
Unknown
Mission
Spacecraft
Bus & Motor
Unknown
Mass
Unknown
Launch date (UTC)
1985-10-09 (40 years ago)
Launch vehicle
Unknown
Launch site
Plesetsk Missile And Space Complex (PKMTR)
Object type
Payload
Rocket body
Debris
Shape & HBR
Unknown shape, 0.2 m
Radar Cross Section
Medium (>0.1 m² and <1 m²)

Expand to show TLE details & history
Last TLE update: 14 hours ago

TLE from 14 hours ago
0 COSMOS 1691 DEB
1 16270U 85094P   25295.04906471  .00000243  00000-0  10399-2 0  9999
2 16270  82.7289 136.3492 0261454 233.5594 284.7921 12.69074404851571
Epoch: 2025-10-22T01:10Z
TLE epoch observation values (Epoch: 2025-10-22T01:10:39.190Z)
Latitude
24.38184°
Longitude
-95.341°
Altitude
1,341.705 km
Speed
7.211 km/s
True Right ascension
20h 52m 12s
True Declination
24° 15' 45"
Sunlit
Object was in daylight at epoch
Visualization orbit readout
Latitude
Unknown
Longitude
Unknown
Altitude
Unknown
Speed
Unknown
Apparent Right ascension
Unknown
Apparent Declination
Unknown
Sunlit
N/A
Visualization observer readout
Local Sidereal Time
09:59:34
Azimuth
Unknown
Elevation
Unknown
Doppler factor
Unknown
Orbital elements
Apogee altitude
1,585.934 km
Perigee altitude
1,180.097 km
Semi-major axis
7,761.152 km
Eccentricity
0.02615
Inclination
82.7289°
RAAN
136.3492°
Arg. of periapsis
233.5594°
True anomaly
281.87225°
Mean anomaly
284.7921°
Eccentric anomaly
283.33447°
Mean motion
3.17434 °/min
Orbital period
113.41 mins
BSTAR
0.0010399
Loading maneuver chart data...
Computing Atmospheric mass density...
Loading historical data...
Loading historical data...
Loading historical data...
Loading historical data...
Loading historical data...
Loading historical data...
Loading historical data...

Documentation

Showing up to 5 results
|